Powrót do katalogu

THORAD AGENA D DEB

AktywnyLEO
NORAD 5026·DEBRIS·🇺🇸 United States

Wystrzelony Apr 8, 1970 z Vandenberg Space Force Base

Loading…

Następne Przeloty (najbliższe 24 godziny)

TLE

ŚwieżeSource: Space-Track

Epoka: Sep 14, 2026, 06:02 UTC

1 05026U 70025JA  26257.25177622  .00001046  00000-0  10915-2 0  9990
2 05026 100.1802 171.6407 0030483 214.8952 297.3048 13.77836176796859

Śledź THORAD AGENA D DEB w czasie rzeczywistym z AllMySat

Download on the App Store